This is the latest recevied weather packets stored in our database for station/object EB2EMZ-3. If no packets are shown the sender has not sent any weather packets the latest 10 day(s).
| Time | Temp. | Humidity | Pressure | Rain* | Wind** | Luminosity | Snow |
|---|---|---|---|---|---|---|---|
| 1777802084 | 19.44° C | 75% | 1015.7 hPa | 0 mm | - | - | - |
| 1777801784 | 20° C | 74% | 1015.6 hPa | 0 mm | - | - | - |
| 1777801484 | 20° C | 73% | 1015.4 hPa | 0 mm | - | - | - |
| 1777801184 | 20° C | 74% | 1015.4 hPa | 0 mm | - | - | - |
| 1777800884 | 20° C | 76% | 1015.3 hPa | 0 mm | - | - | - |
| 1777800584 | 20° C | 76% | 1015.5 hPa | 0 mm | - | - | - |
| 1777800284 | 19.44° C | 77% | 1015.7 hPa | 0 mm | - | - | - |
| 1777799984 | 19.44° C | 77% | 1015.7 hPa | 0 mm | - | - | - |
| 1777799684 | 18.89° C | 78% | 1015.8 hPa | 0 mm | - | - | - |
| 1777799384 | 18.89° C | 80% | 1016 hPa | 0 mm | - | - | - |
| 1777799084 | 18.89° C | 80% | 1015.9 hPa | 0 mm | - | - | - |
| 1777798784 | 18.33° C | 80% | 1015.9 hPa | 0.51 mm | - | - | - |
| 1777798484 | 18.33° C | 82% | 1016.1 hPa | 0.51 mm | - | - | - |
| 1777798184 | 17.78° C | 82% | 1015.9 hPa | 0.51 mm | - | - | - |
| 1777797884 | 17.78° C | 84% | 1015.6 hPa | 1.02 mm | - | - | - |
| 1777797584 | 17.22° C | 85% | 1015.7 hPa | 1.02 mm | - | - | - |
| 1777797284 | 17.22° C | 85% | 1015.7 hPa | 1.02 mm | - | - | - |
| 1777796984 | 17.22° C | 87% | 1015.7 hPa | 1.02 mm | - | - | - |
| 1777796684 | 16.67° C | 87% | 1015.7 hPa | 1.02 mm | - | - | - |
| 1777796384 | 16.67° C | 87% | 1015.7 hPa | 1.02 mm | - | - | - |
| 1777796084 | 16.11° C | 87% | 1015.9 hPa | 1.02 mm | - | - | - |
| 1777795784 | 16.11° C | 87% | 1015.7 hPa | 1.02 mm | - | - | - |
| 1777795484 | 16.11° C | 87% | 1015.8 hPa | 0.51 mm | - | - | - |
| 1777795184 | 16.11° C | 87% | 1015.8 hPa | 0.51 mm | - | - | - |
| 1777794884 | 16.11° C | 86% | 1015.8 hPa | 0.51 mm | - | - | - |
* Rain latest hour (hover to see other rain measurements)
** Current wind speed in m/s (hover to see current wind gust speed)